Temp
14 14 14 14 15 14 14 14 14 14 14 13 13 13 12 12 11 12 12 12 11 10 10 10 10 10 10 10 10 9 9 9 9 9 9 9 8 8 8 8 8 8 8 7 7 7 7 7 7
13 14 15 14 15 14 14 15 13 13 13 13 13 13 13 12 11 12 12 11 11 10 10 10 10 10 10 10 10 9 9 9 9 9 9 9 9 8 8 8 8 8 8 8 8 7 7 7 7
13 13 14 14 14 13 13 14 13 13 12 13 13 13 13 12 12 12 11 11 11 10 10 10 9 10 10 10 10 10 10 9 9 9 9 9 9 8 8 8 8 8 8 8 8 7 7 7 7
14 13 13 13 14 13 14 14 14 14 13 13 12 12 12 11 11 11 11 11 10 10 10 10 9 10 10 10 10 10 10 10 10 10 10 9 9 9 9 9 8 8 8 8 8 7 7 7 7
13 13 14 13 14 13 12 13 14 14 14 13 12 13 12 11 11 11 11 10 10 10 10 9 9 10 9 10 10 10 10 10 10 10 10 9 9 9 9 9 9 8 8 8 8 7 7 7 7
13 14 14 14 14 14 12 11 13 13 14 13 12 12 11 10 11 10 10 9 9 9 9 9 9 9 10 9 10 10 10 10 10 10 10 10 9 9 9 9 9 8 8 8 8 7 8 8 8
14 14 14 15 14 13 14 12 13 14 13 12 12 12 11 11 11 11 9 9 8 8 9 9 9 9 9 9 10 10 10 10 10 10 10 10 9 9 9 9 8 8 8 7 7 8 8 7 7
14 13 14 15 14 12 12 14 14 13 12 13 12 12 11 11 11 10 10 8 9 8 8 8 8 8 9 9 10 9 9 9 10 10 10 10 9 9 9 8 8 8 8 8 8 8 8 8 7
13 14 15 15 14 14 11 14 15 14 13 12 12 12 10 10 10 10 10 9 9 9 8 8 8 9 9 9 9 9 9 9 10 10 10 10 10 9 9 8 8 8 8 8 8 7 7 7 7
14 15 16 16 15 14 14 14 15 14 14 12 12 12 10 10 9 9 9 9 9 9 10 9 9 9 10 10 9 9 9 10 10 10 10 10 9 9 9 8 8 8 8 8 7 8 8 8 8
15 16 16 16 16 16 16 15 15 15 15 13 13 11 11 9 9 9 9 9 9 9 9 9 10 9 9 9 9 10 9 10 10 10 10 10 10 9 9 8 8 8 8 8 8 8 8 8 8
16 16 16 16 16 16 16 16 15 15 15 14 13 12 11 10 10 10 10 10 9 9 9 9 10 10 10 10 10 10 10 10 10 10 10 10 9 10 9 9 9 9 8 9 8 8 8 8 8
16 16 16 16 16 16 16 16 16 15 15 14 14 14 13 11 10 10 10 10 10 10 9 9 10 10 10 10 10 10 10 10 10 10 10 10 9 10 10 9 9 8 8 8 8 8 7 8 8
16 16 16 16 16 16 16 16 16 15 15 14 13 12 12 11 11 10 11 10 10 11 10 10 11 10 10 10 10 10 10 10 10 10 11 11 10 10 10 9 8 8 9 9 8 8 8 8 8
16 16 17 16 16 16 16 16 16 15 15 13 14 13 12 11 11 12 11 10 10 11 10 10 10 11 10 10 10 10 10 10 10 10 11 11 11 11 10 10 9 9 9 8 8 9 8 8 9
16 16 16 17 17 16 17 17 16 16 15 14 15 15 13 14 12 12 12 10 10 11 11 10 10 11 11 11 10 10 10 10 10 10 11 12 11 10 9 10 10 9 9 9 9 9 9 9 9
16 16 17 17 17 17 17 17 17 16 15 15 16 15 15 15 13 13 13 12 10 11 11 11 10 11 11 11 10 10 10 10 10 10 10 12 11 11 10 10 10 10 10 9 9 9 9 9 9
16 16 17 17 17 17 17 17 17 17 16 16 16 15 16 15 14 14 14 12 11 12 12 11 10 11 11 11 10 11 10 10 10 10 10 10 11 11 11 10 10 10 9 10 9 9 9 10 10
16 16 17 17 18 17 18 17 17 17 16 16 16 16 16 16 15 14 14 13 12 12 12 12 11 11 11 11 11 11 11 10 10 10 10 10 10 11 11 10 10 10 9 9 9 8 9 7 9
16 17 17 17 18 18 18 18 18 17 17 17 17 16 16 16 15 15 15 14 14 13 13 12 12 11 11 11 10 10 10 10 9 10 10 10 10 10 11 11 10 10 10 10 9 9 9 8 9
16 17 17 17 17 17 17 17 18 18 18 17 17 17 17 16 16 16 15 15 14 14 13 13 12 12 12 11 10 10 10 11 11 11 11 10 10 9 10 10 10 10 10 10 10 9 9 9 8
17 17 17 17 17 17 17 16 18 19 19 18 18 17 17 17 16 16 16 15 14 14 14 13 12 12 12 11 11 10 11 11 10 10 10 10 10 10 10 10 9 10 9 10 9 10 9 10 9
17 17 17 17 17 17 18 16 19 19 19 19 19 18 17 17 17 17 16 16 15 14 14 14 13 12 12 12 11 11 11 11 11 11 11 10 10 10 9 10 9 10 10 9 10 10 9 9 9
17 16 16 16 17 16 18 17 18 19 19 19 18 18 18 18 17 17 16 15 15 14 14 14 13 13 12 12 12 11 11 10 11 11 11 11 10 10 9 9 9 10 9 9 9 9 10 10 9
16 16 16 14 13 13 18 17 18 19 19 19 19 18 18 18 18 17 17 16 15 15 14 14 13 13 12 12 12 12 11 11 11 11 10 10 10 10 10 10 10 9 9 9 9 9 10 10 9
16 16 16 14 11 14 18 18 18 19 19 19 17 18 18 18 18 18 18 17 16 15 15 14 13 13 12 12 12 11 11 11 11 11 11 11 10 10 9 10 10 9 9 9 9 9 10 9 10
17 17 17 17 16 15 17 18 18 19 18 18 18 17 18 18 18 18 18 17 16 15 15 14 13 13 13 12 12 12 12 12 12 11 11 11 11 10 10 10 10 9 9 9 9 10 10 10 10
16 16 17 16 14 14 17 18 15 17 17 17 17 18 17 18 18 18 17 17 16 15 15 14 13 13 13 13 13 12 12 12 12 12 11 11 11 11 11 10 10 9 8 9 9 10 9 10 10
16 16 16 15 15 12 10 15 14 14 15 16 16 17 17 17 18 18 18 17 16 16 15 14 13 13 13 13 13 13 13 12 12 12 12 11 11 11 11 11 10 10 9 9 10 10 10 10 10
14 14 14 14 14 15 15 13 14 15 15 15 15 15 15 17 17 16 15 16 17 16 16 15 14 14 13 13 13 12 12 12 12 12 11 12 11 11 11 11 10 11 11 11 10 10 10 10 10
Height
3193 3195 3195 3196 3199 3195 3194 3196 3194 3194 3193 3195 3196 3195 3193 3190 3190 3193 3188 3189 3190 3193 3195 3196 3198 3200 3202 3203 3203 3204 3205 3206 3208 3209 3210 3211 3212 3213 3214 3215 3215 3216 3215 3214 3214 3214 3213 3213 3213
3196 3195 3194 3195 3197 3195 3196 3195 3194 3194 3194 3196 3194 3195 3193 3191 3191 3190 3188 3188 3190 3193 3195 3196 3198 3201 3203 3204 3205 3205 3207 3207 3209 3210 3211 3212 3213 3214 3214 3215 3216 3216 3216 3215 3215 3216 3216 3215 3214
3198 3196 3195 3192 3195 3197 3198 3194 3192 3192 3196 3196 3193 3193 3193 3192 3190 3190 3189 3189 3190 3193 3195 3196 3199 3201 3203 3205 3206 3206 3207 3209 3210 3211 3212 3213 3214 3214 3215 3216 3217 3216 3216 3216 3216 3216 3216 3216 3215
3196 3194 3199 3199 3195 3198 3199 3198 3194 3193 3194 3192 3191 3189 3189 3190 3190 3191 3189 3189 3190 3193 3195 3197 3199 3202 3204 3206 3206 3207 3208 3209 3211 3212 3212 3214 3215 3215 3216 3217 3217 3217 3217 3217 3217 3217 3216 3216 3216
3197 3196 3197 3197 3196 3198 3199 3200 3199 3195 3193 3190 3188 3190 3189 3188 3189 3190 3191 3191 3191 3193 3195 3197 3200 3203 3204 3206 3207 3208 3209 3210 3211 3212 3214 3215 3216 3217 3217 3217 3218 3217 3218 3217 3217 3217 3217 3217 3217
3200 3199 3198 3198 3197 3199 3200 3196 3198 3196 3194 3190 3189 3189 3187 3187 3188 3190 3190 3191 3192 3195 3196 3198 3200 3203 3204 3206 3206 3209 3210 3211 3212 3213 3215 3217 3218 3218 3218 3217 3218 3218 3219 3219 3218 3217 3217 3217 3217
3202 3201 3199 3197 3198 3200 3201 3199 3197 3193 3191 3190 3191 3188 3188 3186 3188 3190 3191 3192 3193 3195 3197 3198 3199 3202 3204 3206 3206 3209 3210 3211 3212 3214 3216 3217 3218 3219 3219 3219 3219 3219 3219 3218 3218 3219 3219 3220 3219
3201 3200 3201 3199 3199 3204 3202 3197 3194 3192 3191 3191 3188 3186 3185 3184 3186 3188 3190 3193 3194 3195 3196 3197 3199 3202 3205 3206 3206 3209 3210 3212 3213 3214 3216 3218 3219 3219 3220 3221 3220 3220 3219 3219 3220 3220 3221 3221 3221
3201 3201 3201 3199 3198 3199 3198 3200 3196 3193 3190 3190 3188 3187 3185 3184 3185 3187 3189 3191 3194 3194 3193 3195 3199 3202 3205 3205 3207 3209 3211 3212 3213 3214 3217 3218 3220 3221 3221 3221 3220 3220 3221 3223 3223 3221 3219 3218 3217
3201 3201 3200 3199 3197 3196 3194 3196 3195 3192 3190 3189 3188 3188 3185 3187 3187 3189 3190 3193 3195 3196 3196 3197 3200 3203 3204 3205 3207 3209 3211 3212 3213 3214 3217 3218 3220 3221 3221 3222 3221 3222 3222 3222 3220 3220 3221 3218 3218
3199 3201 3200 3200 3198 3197 3195 3195 3193 3192 3190 3186 3187 3187 3186 3187 3190 3190 3192 3194 3196 3198 3198 3200 3202 3204 3205 3206 3208 3210 3211 3212 3214 3215 3217 3219 3220 3221 3221 3222 3222 3222 3224 3224 3223 3220 3221 3220 3218
3201 3201 3200 3200 3199 3197 3195 3195 3194 3193 3191 3188 3186 3186 3184 3186 3189 3190 3192 3195 3195 3197 3199 3201 3202 3204 3205 3206 3208 3210 3211 3213 3214 3216 3217 3219 3221 3221 3222 3224 3223 3225 3224 3225 3223 3219 3220 3220 3218
3199 3201 3200 3199 3198 3197 3195 3195 3193 3192 3191 3189 3187 3187 3185 3186 3189 3191 3194 3194 3194 3197 3199 3200 3202 3203 3204 3205 3207 3209 3211 3212 3213 3215 3217 3218 3221 3222 3223 3224 3225 3224 3224 3226 3226 3224 3223 3220 3221
3197 3197 3197 3197 3196 3195 3194 3193 3193 3191 3189 3189 3189 3187 3186 3187 3188 3191 3193 3193 3193 3195 3199 3200 3201 3203 3205 3206 3208 3209 3210 3212 3213 3215 3217 3218 3220 3222 3224 3223 3224 3224 3227 3227 3226 3226 3224 3222 3223
3195 3195 3194 3194 3195 3196 3194 3194 3192 3190 3188 3187 3187 3187 3184 3187 3187 3188 3191 3192 3193 3194 3196 3198 3199 3202 3204 3205 3207 3209 3210 3211 3212 3214 3216 3219 3220 3221 3223 3222 3224 3223 3226 3227 3227 3227 3224 3223 3222
3194 3194 3192 3191 3190 3193 3194 3192 3188 3188 3185 3184 3184 3183 3182 3184 3185 3187 3191 3191 3191 3191 3193 3196 3197 3200 3203 3204 3206 3208 3209 3210 3212 3213 3215 3218 3220 3220 3221 3223 3225 3227 3227 3228 3227 3228 3228 3227 3225
3193 3192 3189 3188 3189 3191 3191 3190 3187 3185 3183 3182 3185 3187 3184 3185 3186 3186 3188 3189 3188 3188 3190 3194 3195 3197 3201 3203 3205 3207 3209 3210 3211 3213 3214 3216 3219 3219 3220 3223 3224 3227 3228 3227 3228 3229 3228 3228 3228
3191 3192 3191 3189 3189 3188 3188 3187 3187 3183 3182 3180 3182 3184 3184 3185 3186 3185 3186 3185 3186 3186 3187 3190 3193 3195 3198 3200 3202 3205 3207 3209 3211 3213 3213 3215 3216 3217 3221 3222 3223 3225 3226 3226 3227 3229 3229 3226 3228
3191 3192 3191 3188 3187 3186 3186 3185 3186 3183 3181 3179 3180 3180 3184 3186 3185 3186 3185 3184 3184 3185 3185 3186 3190 3192 3194 3197 3199 3202 3205 3206 3208 3211 3212 3213 3214 3216 3219 3220 3223 3225 3226 3227 3227 3229 3229 3227 3229
3190 3189 3188 3187 3185 3184 3183 3182 3181 3182 3179 3177 3177 3178 3180 3183 3181 3183 3183 3184 3184 3183 3184 3184 3187 3189 3192 3194 3195 3197 3201 3204 3206 3208 3211 3211 3213 3214 3217 3218 3221 3223 3225 3227 3227 3228 3230 3227 3226
3188 3188 3187 3186 3183 3181 3179 3174 3174 3173 3175 3173 3172 3173 3175 3175 3177 3180 3181 3183 3183 3182 3181 3182 3183 3185 3187 3190 3191 3193 3196 3200 3203 3205 3208 3210 3211 3212 3215 3216 3218 3221 3223 3225 3226 3228 3229 3230 3230
3185 3186 3184 3182 3181 3179 3178 3172 3166 3167 3169 3168 3167 3168 3169 3171 3175 3177 3178 3180 3180 3181 3180 3180 3180 3181 3183 3185 3187 3190 3193 3197 3200 3203 3205 3207 3209 3210 3211 3213 3215 3217 3221 3222 3224 3226 3226 3228 3229
3184 3183 3182 3180 3179 3178 3174 3175 3165 3165 3164 3163 3163 3163 3166 3169 3171 3173 3174 3178 3179 3179 3179 3179 3179 3179 3181 3182 3184 3187 3190 3193 3196 3199 3202 3204 3206 3207 3208 3209 3211 3213 3216 3219 3222 3223 3224 3225 3226
3182 3181 3180 3179 3177 3176 3171 3174 3162 3160 3159 3160 3161 3163 3165 3167 3169 3172 3175 3177 3178 3178 3177 3177 3176 3177 3178 3180 3182 3184 3186 3189 3191 3194 3198 3200 3201 3202 3204 3206 3207 3210 3213 3215 3219 3220 3221 3222 3223
3180 3179 3180 3180 3178 3175 3171 3170 3166 3160 3159 3161 3162 3163 3163 3165 3167 3169 3171 3174 3176 3176 3175 3176 3175 3175 3176 3178 3180 3182 3185 3186 3187 3190 3192 3194 3197 3200 3201 3203 3205 3207 3209 3210 3214 3217 3218 3218 3220
3178 3179 3180 3182 3181 3173 3168 3166 3166 3161 3164 3164 3165 3164 3164 3164 3165 3166 3168 3171 3174 3175 3175 3175 3175 3175 3175 3176 3178 3179 3182 3183 3184 3186 3188 3190 3192 3194 3196 3199 3200 3202 3204 3204 3208 3212 3214 3215 3216
3176 3175 3178 3177 3175 3175 3170 3167 3166 3163 3165 3167 3168 3164 3162 3163 3164 3166 3167 3169 3172 3173 3173 3174 3175 3174 3175 3176 3177 3178 3178 3180 3182 3184 3185 3187 3188 3190 3192 3194 3196 3198 3199 3200 3202 3206 3209 3210 3212
3177 3177 3176 3175 3176 3175 3169 3166 3168 3163 3160 3160 3158 3160 3158 3159 3162 3164 3166 3167 3170 3172 3173 3173 3173 3174 3174 3175 3176 3177 3177 3178 3179 3180 3181 3182 3183 3185 3187 3189 3191 3192 3192 3194 3197 3200 3203 3206 3207
3175 3175 3175 3176 3177 3178 3179 3172 3171 3168 3166 3165 3163 3159 3158 3157 3158 3161 3164 3167 3169 3171 3172 3173 3175 3176 3176 3176 3176 3177 3178 3178 3177 3178 3177 3178 3179 3180 3182 3184 3186 3186 3187 3189 3192 3195 3199 3202 3203
3177 3177 3176 3175 3175 3176 3175 3174 3168 3164 3163 3165 3163 3161 3157 3154 3156 3159 3161 3164 3164 3169 3168 3169 3171 3173 3174 3176 3177 3177 3177 3177 3177 3178 3177 3175 3175 3176 3177 3179 3181 3183 3184 3185 3189 3192 3194 3197 3198
Wind_Speed
1 3 4 6 10 14 17 16 13 6 9 11 7 2 11 8 12 3 9 13 17 16 16 16 16 14 14 15 15 14 12 12 12 10 10 9 8 7 6 6 5 4 4 4 5 5 6 5 4
7 7 4 13 11 10 13 13 10 9 11 4 9 5 2 4 6 4 10 17 17 16 15 15 16 13 12 11 13 13 12 11 11 10 10 9 8 7 6 4 3 3 4 4 5 5 4 3 2
10 6 13 18 5 5 9 12 7 10 11 6 10 4 3 7 6 9 10 14 17 17 16 16 16 14 12 11 10 12 11 10 11 9 9 7 7 6 5 4 6 8 7 7 6 6 5 4 3
16 6 17 15 6 7 10 6 0 2 5 5 8 7 3 3 2 6 7 13 15 18 17 16 15 15 12 11 9 10 10 10 9 8 7 6 6 5 5 6 8 10 9 7 6 5 5 5 4
18 18 12 11 6 11 4 3 6 5 8 6 7 2 1 3 2 2 4 12 14 18 17 17 17 17 10 10 10 8 10 9 8 7 7 6 5 6 7 7 7 7 6 5 5 5 4 3 1
15 12 7 6 3 9 4 3 4 10 7 5 2 1 2 4 2 4 6 15 16 14 17 16 16 16 11 7 9 8 9 9 9 8 7 7 7 7 8 8 6 5 5 4 4 4 3 3 3
14 10 19 14 3 7 4 7 8 15 9 2 3 7 4 6 2 5 17 12 11 15 16 18 16 14 9 10 11 8 8 8 9 9 8 8 8 8 7 7 5 3 3 4 5 5 6 4 2
7 3 4 12 4 12 8 4 6 9 5 2 3 8 3 1 0 8 14 11 9 10 16 17 17 15 10 13 10 8 8 7 9 9 9 8 8 8 7 7 6 6 7 6 6 4 4 4 1
5 4 8 10 1 7 7 9 13 11 10 5 2 2 7 3 5 8 13 11 10 12 13 18 18 14 13 11 9 8 8 7 9 9 9 8 7 7 8 8 8 10 11 10 7 3 4 3 5
11 4 10 11 6 5 4 8 15 10 10 3 5 3 8 7 2 4 8 11 11 14 16 19 18 16 14 12 10 9 9 8 9 9 10 10 9 6 8 9 13 13 11 9 7 3 3 4 6
11 4 7 3 8 10 10 5 13 13 13 5 2 2 6 5 3 3 1 3 10 16 13 12 15 14 12 10 10 10 10 8 8 10 11 10 9 9 8 10 13 10 8 6 2 2 6 3 5
2 4 2 5 6 13 12 5 8 7 18 5 9 9 5 1 5 5 3 7 12 17 15 14 13 12 11 10 10 12 11 8 7 10 11 10 11 10 10 10 10 8 4 5 4 11 6 3 3
11 1 4 7 1 6 6 11 11 6 11 3 9 11 14 3 4 2 3 5 12 16 18 14 13 12 10 10 10 13 12 10 9 9 13 13 12 11 11 10 9 6 4 4 12 7 12 7 10
5 7 9 6 1 9 10 9 5 5 4 5 9 8 8 1 2 7 4 3 14 19 18 16 12 11 13 11 9 11 12 12 10 9 10 12 13 12 11 10 7 4 4 4 11 13 12 15 13
4 6 6 9 7 11 10 9 8 4 3 8 10 6 8 9 11 5 6 6 7 21 19 20 17 13 12 9 9 11 12 13 11 9 9 13 12 11 9 9 7 3 7 7 6 10 10 13 10
7 9 15 5 10 8 4 8 4 8 10 13 3 9 10 8 8 6 6 8 8 17 25 23 21 18 14 11 10 13 11 10 13 11 10 12 12 13 10 10 7 5 3 4 5 5 7 10 9
4 15 16 4 9 6 8 1 7 8 16 15 7 8 3 8 3 3 7 5 8 13 22 24 24 22 17 15 14 12 11 11 10 9 9 9 13 14 14 10 8 6 5 3 6 3 6 4 6
18 24 13 10 5 9 10 9 10 9 17 21 17 11 9 5 3 3 8 6 6 11 19 23 23 21 20 17 17 13 10 12 11 13 9 11 11 13 13 13 11 9 5 4 4 4 3 3 4
19 24 18 17 7 17 16 11 13 11 15 19 22 20 15 7 4 4 3 6 4 9 17 20 23 20 19 19 19 16 12 11 9 11 12 15 13 12 12 13 11 9 11 6 9 6 5 7 2
17 20 18 14 9 16 16 21 24 23 22 28 24 27 22 8 11 9 4 3 6 6 13 17 17 18 19 19 15 19 17 15 15 14 10 13 13 13 11 11 12 12 11 11 10 6 5 8 3
15 18 16 15 14 12 18 28 26 21 23 21 26 27 26 14 9 8 8 3 6 8 11 12 13 15 17 18 18 18 19 17 15 13 10 8 14 16 15 13 13 12 12 10 12 8 8 7 6
15 14 16 21 19 19 22 23 13 4 7 15 20 27 29 21 17 15 15 5 1 8 8 13 13 14 17 19 18 19 16 14 13 12 12 10 15 16 16 15 14 12 9 6 9 8 11 9 9
10 10 15 20 19 21 17 9 17 27 22 12 15 23 26 25 19 16 17 8 6 8 8 10 14 15 17 21 21 19 17 15 16 16 16 13 13 15 17 16 15 13 13 11 8 8 10 13 10
12 9 12 14 14 10 18 11 24 18 10 12 13 13 20 18 20 19 18 14 11 11 10 9 14 14 15 17 19 19 19 18 19 18 15 14 15 14 16 18 16 15 14 14 9 7 9 11 9
15 11 7 5 3 9 19 15 9 4 12 9 9 10 16 15 15 17 22 19 14 10 10 10 11 14 14 15 16 17 16 20 19 18 17 16 14 13 13 13 15 16 16 17 13 11 9 11 11
6 10 4 2 2 11 30 8 7 5 7 17 13 19 21 20 18 18 19 19 13 8 12 10 9 13 14 14 14 16 17 17 16 17 17 15 13 14 15 15 15 17 20 21 17 14 11 12 13
7 8 10 14 18 8 8 17 4 11 9 9 7 6 22 26 19 19 21 18 12 8 11 10 7 8 11 13 14 15 14 13 11 12 14 15 15 16 14 15 14 15 19 21 21 17 15 15 13
10 13 8 7 3 3 7 11 16 8 13 11 9 13 15 13 21 19 22 19 10 7 10 12 10 8 8 8 10 11 11 11 12 12 11 11 13 17 19 17 12 14 18 26 24 20 17 13 12
12 14 11 2 8 1 3 6 16 21 21 17 14 15 18 11 21 19 21 20 8 9 13 13 13 12 12 11 10 9 8 10 11 11 11 9 11 13 16 16 12 10 11 16 20 18 15 13 12
20 19 20 9 4 10 4 5 20 19 24 22 17 18 16 13 15 34 33 26 14 19 16 15 16 15 13 11 9 8 9 8 7 10 12 10 8 7 11 15 13 10 10 12 15 16 15 13 12
Wind_Direction
79 19 11 51 78 87 89 82 73 70 72 71 40 136 190 224 182 230 190 174 155 166 161 161 156 156 157 158 150 151 153 153 151 155 152 153 149 152 160 163 163 159 162 140 124 117 126 138 145
45 53 90 124 108 80 86 74 69 37 102 31 359 62 227 205 201 238 193 164 161 168 166 163 157 158 158 158 154 154 156 161 152 159 158 153 159 164 162 164 150 139 150 145 129 119 114 146 308
37 7 136 112 82 15 72 104 97 95 103 40 359 9 56 71 83 169 167 170 163 171 171 167 162 162 162 158 160 154 154 164 154 163 155 159 170 166 149 123 106 96 95 97 105 105 104 83 77
2 106 102 106 131 62 82 102 140 102 35 17 4 326 78 157 46 154 176 178 171 176 173 171 166 155 170 161 166 163 151 155 149 152 150 162 166 149 126 106 101 96 90 86 88 83 82 96 105
33 103 83 82 89 40 170 186 326 224 297 12 358 35 107 222 112 173 188 182 182 181 178 178 169 156 157 160 166 165 148 146 142 139 145 149 154 139 123 109 104 97 91 83 69 71 89 103 74
44 51 26 11 339 20 113 327 329 352 332 320 252 14 226 170 264 272 177 168 183 195 184 185 179 183 201 176 179 164 148 140 139 137 144 137 137 130 125 111 99 95 88 76 62 64 102 109 126
58 63 60 13 358 85 325 90 6 8 357 69 322 335 217 148 213 121 154 134 157 191 201 191 191 183 207 192 178 162 145 143 140 143 148 137 131 129 128 114 98 86 101 104 98 103 123 114 107
28 265 27 36 33 62 119 65 29 357 326 298 311 300 245 216 49 153 145 136 155 175 197 189 187 190 184 176 166 163 149 151 146 151 148 136 135 134 124 100 71 93 117 104 82 94 125 130 90
197 270 36 350 26 21 146 344 358 333 342 345 266 221 233 227 259 183 155 159 155 143 160 174 194 184 179 173 175 176 156 163 149 157 144 135 134 136 123 100 82 101 98 94 78 100 143 152 163
221 335 3 9 352 91 352 319 9 26 350 319 243 203 208 243 206 115 161 189 170 151 131 136 150 166 174 184 193 188 168 171 157 157 145 149 144 143 130 108 102 103 99 96 108 114 164 171 181
201 273 356 32 352 337 333 310 348 347 349 299 110 125 319 185 198 171 104 237 198 178 169 158 166 173 178 191 190 180 170 172 167 161 161 157 152 155 145 128 121 122 101 103 102 339 270 266 200
244 226 352 343 344 316 302 0 1 358 351 43 21 9 5 181 92 197 311 280 224 193 185 177 175 182 179 184 192 180 173 173 181 166 160 161 162 172 155 149 133 113 80 69 351 5 13 73 318
56 351 284 312 336 330 346 349 339 342 356 108 38 36 64 123 241 187 251 289 235 202 190 189 186 190 189 188 187 182 172 181 189 179 179 176 176 178 152 136 124 114 154 21 26 25 40 50 59
346 311 290 209 296 309 336 342 339 302 341 143 56 359 12 254 340 247 266 261 245 228 202 201 200 195 195 195 198 195 181 190 196 191 191 188 179 172 153 153 146 156 85 66 59 77 32 48 55
242 280 261 261 262 262 292 326 323 256 261 154 56 325 257 271 251 336 297 288 258 236 234 220 222 207 206 202 200 209 189 193 188 195 196 189 173 172 175 180 158 137 44 58 26 61 39 31 37
289 281 289 351 240 226 267 2 299 262 239 195 84 23 221 24 267 288 325 259 262 222 226 228 225 218 213 214 208 201 204 200 197 187 190 187 179 176 184 210 175 177 186 119 49 54 56 46 55
339 336 339 236 198 288 235 243 342 266 238 252 280 286 316 31 259 53 3 284 243 223 219 218 224 225 213 218 221 208 211 219 208 205 203 185 188 196 188 214 208 193 180 103 113 56 57 67 26
325 331 345 11 319 263 244 249 328 271 257 269 288 254 285 345 352 47 9 347 257 217 211 209 217 221 217 215 222 224 205 218 223 204 217 203 197 207 201 205 223 212 194 158 145 343 332 34 66
309 315 317 328 292 314 307 279 304 300 268 266 265 255 256 328 283 242 356 342 305 222 207 207 213 214 212 215 221 224 223 231 240 226 229 216 209 218 210 204 211 235 238 208 194 217 275 286 34
312 312 327 323 315 299 295 290 285 282 281 282 265 249 256 268 247 276 309 306 357 262 211 208 206 213 211 216 222 225 229 226 236 237 212 218 218 222 212 210 220 229 243 230 230 217 215 255 290
282 317 302 329 336 312 305 291 289 271 264 275 259 251 260 266 265 286 279 1 331 320 247 216 206 207 209 211 215 214 220 222 223 231 224 222 221 228 232 222 234 241 247 232 243 250 223 205 238
275 304 298 304 324 322 315 306 319 248 253 265 273 235 243 247 249 256 260 252 53 323 266 222 206 209 211 209 214 221 226 218 224 222 221 206 210 214 227 231 237 233 227 265 246 251 232 233 236
310 295 299 298 301 313 306 308 312 310 299 244 231 223 239 244 255 261 262 274 258 289 302 235 210 208 212 215 214 219 223 218 221 220 218 212 205 214 216 227 226 232 232 240 241 231 257 235 230
286 300 316 295 283 290 310 283 311 322 238 203 207 228 232 242 253 260 256 253 258 264 288 263 218 211 213 218 220 221 222 224 228 229 226 218 207 213 217 220 218 227 231 240 232 225 232 213 222
272 275 312 344 349 236 319 314 325 308 197 204 208 228 235 244 252 260 253 250 260 275 287 256 229 218 219 219 223 225 220 224 228 224 221 224 220 221 214 217 227 232 236 241 232 223 230 212 218
275 257 260 240 245 294 325 321 16 283 218 210 230 231 234 240 242 252 265 258 265 266 281 241 231 216 215 216 213 210 216 221 222 220 220 223 218 210 209 220 225 231 236 240 239 223 219 223 236
267 267 268 278 289 299 306 353 74 71 94 56 359 0 244 240 249 241 246 260 268 264 272 231 223 206 207 209 208 202 205 206 206 215 218 215 213 215 217 226 229 245 237 235 238 226 222 221 230
325 301 325 342 341 318 313 325 49 14 324 338 335 322 351 240 248 241 235 250 262 261 254 217 201 166 162 183 194 205 207 206 201 204 208 211 218 225 221 229 237 248 241 237 228 223 219 225 233
5 12 347 9 43 117 325 53 5 2 356 343 331 315 314 318 233 236 233 242 251 241 233 210 200 182 160 153 156 158 176 202 208 205 207 207 214 226 226 222 222 234 225 209 216 224 226 232 234
55 34 22 346 311 328 337 87 342 329 327 330 331 348 348 283 252 237 224 223 233 219 209 198 197 184 169 175 185 181 181 178 183 200 210 206 198 208 209 207 208 210 201 203 212 217 224 230 231